Location: Star Hoppers Observatory
(42.7905°N, 83.6127°W)
Time: 18:34:29
(UTC-04:00)

NOSS 3-1 (A) - Visible Passes

Search period start: 23 May 2017 00:00
Search period end: 02 June 2017 00:00
Orbit: 830 x 1382 km, 63.4° (Epoch: 21 May)

Date Brightness Start Highest point End Pass type
(mag) Time Alt. Az. Time Alt. Az. Time Alt. Az.
23 May 5.1 00:42:50 10° NNW 00:49:44 39° NE 00:56:43 12° ESE visible
23 May 4.1 02:33:35 10° NW 02:41:10 63° WSW 02:44:04 42° S visible
23 May 5.6 04:27:52 10° W 04:31:02 13° WSW 04:31:27 13° WSW visible
23 May 6.2 22:07:23 10° NNW 22:10:54 14° N 22:14:38 10° NE visible
23 May 5.5 23:58:15 10° NNW 00:04:32 29° NE 00:11:24 10° E visible
24 May 4.0 01:48:47 10° NW 01:56:26 89° SW 01:59:55 40° SSE visible
24 May 5.2 03:41:08 10° WNW 03:46:45 22° WSW 03:47:18 21° WSW visible
24 May 5.8 23:13:40 10° NNW 23:19:12 23° NNE 23:25:12 10° ENE visible
25 May 4.3 01:04:04 10° NNW 01:11:35 66° NE 01:15:54 31° ESE visible
25 May 4.7 02:55:33 10° NW 03:02:20 33° WSW 03:03:18 32° SW visible
25 May 6.0 22:29:01 10° NNW 22:33:44 18° NNE 22:38:47 10° ENE visible
26 May 4.7 00:19:27 10° NNW 00:26:37 47° NE 00:32:00 21° ESE visible
26 May 4.3 02:10:24 10° NW 02:17:48 50° WSW 02:19:24 45° SSW visible
26 May 6.1 21:44:14 10° NNW 21:48:10 15° NNE 21:52:20 10° NE visible
26 May 5.2 23:34:52 10° NNW 23:41:32 35° NE 23:48:12 12° E visible
27 May 4.0 01:25:30 10° NW 01:33:08 73° WSW 01:35:36 49° S visible
27 May 5.6 03:18:47 10° WNW 03:23:00 16° WSW 03:23:00 16° WSW visible
27 May 5.5 22:50:17 10° NNW 22:56:17 26° NNE 23:02:49 10° E visible
28 May 4.1 00:40:44 10° NW 00:48:22 80° NE 00:51:52 39° SE visible
28 May 5.1 02:32:42 10° WNW 02:38:51 26° WSW 02:39:17 26° WSW visible
28 May 5.8 22:05:41 10° NNW 22:10:54 21° NNE 22:16:32 10° ENE visible
28 May 4.4 23:56:04 10° NNW 00:03:28 58° NE 00:08:13 26° ESE visible
29 May 4.6 01:47:19 10° NW 01:54:23 39° WSW 01:55:37 37° SW visible
29 May 4.9 23:11:28 10° NNW 23:18:28 42° NE 23:24:37 16° ESE visible
30 May 4.2 01:02:17 10° NW 01:09:48 58° WSW 01:12:02 45° SSW visible
30 May 5.9 02:57:31 10° W 02:59:27 11° WSW 02:59:27 11° WSW visible
30 May 5.3 22:26:53 10° NNW 22:33:18 31° NE 22:40:20 10° E visible
31 May 4.0 00:17:26 10° NW 00:25:05 83° WSW 00:28:29 41° SSE visible
31 May 5.5 02:10:05 10° WNW 02:15:19 19° WSW 02:15:55 19° WSW visible
31 May 5.6 21:42:18 10° NNW 21:48:00 24° NNE 21:54:12 10° E visible
31 May 4.2 23:32:43 10° NNW 23:40:16 71° NE 23:45:00 29° SE visible
01 Jun 5.0 01:24:21 10° NW 01:30:56 30° WSW 01:32:25 29° SW visible
01 Jun 4.6 22:48:04 10° NNW 22:55:20 51° NE 23:01:34 17° ESE visible
